Weather History for PHSF - September, 2013

Change the Weather History Date:

Friday, September 27, 2013

  Actual Average Record
Temperature  
Mean Temperature 58 °F -  
Max Temperature 68 °F 69 °F 75 °F (2001)
Min Temperature 49 °F 49 °F 46 °F (1996)
Degree Days  
Heating Degree Days 6    
Growing Degree Days 8 (Base 50)    
Moisture  
Dew Point 49 °F    
Average Humidity 71    
Maximum Humidity 86    
Minimum Humidity 47    
Precipitation  
Precipitation 0.00 in - - ()
Sea Level Pressure  
Sea Level Pressure 30.35 in    
Wind  
Wind Speed 8 mph (SSE)    
Max Wind Speed 16 mph    
Max Gust Speed 21 mph    
Visibility 12 miles    
Events      
Averages and records for this station are not official NWS values.
T = Trace of Precipitation, MM = Missing Value Source: NWS Daily Summary

Daily Weather History Graph

Daily Weather History Graph

Search for Another Location

Airport or City:

Trip Planner

Search our weather history database for the weather conditions in past years. The results will help you decide how hot, cold, wet, or windy it might be!

Date:

Astronomy

Sep. 27, 2013 Rise Set
Actual Time 6:12 AM HST 6:13 PM HST
Civil Twilight 5:50 AM HST 6:35 PM HST
Nautical Twilight 5:24 AM HST 7:00 PM HST
Astronomical Twilight 4:59 AM HST 7:26 PM HST
Moon No Moon Rise 1:18 PM HST (9/27)
Length of Visible Light 12h 45m
Length of Day
12h 01m
Last Quarter, 43% of the Moon is Illuminated
Sep 27
Last Quarter
Oct 4
New
Oct 11
First Quarter
Oct 18
Full
Oct 26
Last Quarter

Hourly Weather History & Observations

Time (HST) Temp. Dew Point Humidity Pressure Visibility Wind Dir Wind Speed Gust Speed Precip Events Conditions
12:56 AM 53.6 °F 47.7 °F 80% 30.29 in 12.0 mi ESE 8.1 mph 15.0 mph N/A   Clear
1:56 AM 52.2 °F 47.5 °F 84% 30.29 in 12.0 mi SE 10.4 mph - N/A   Clear
2:56 AM 50.4 °F 46.4 °F 86% 30.29 in 12.0 mi ESE 6.9 mph - N/A   Clear
3:56 AM 49.5 °F 45.5 °F 86% 30.29 in 12.0 mi ESE 5.8 mph - N/A   Clear
4:56 AM 50.4 °F 40.6 °F 69% 30.31 in 12.0 mi ESE 1.2 mph - N/A   Clear
5:56 AM 52.2 °F 45.7 °F 79% 30.32 in 12.0 mi ESE 5.8 mph - N/A   Clear
6:56 AM 54.0 °F 43.5 °F 68% 30.34 in 12.0 mi ESE 8.1 mph - N/A   Clear
7:56 AM 57.7 °F 48.4 °F 71% 30.36 in 12.0 mi SE 13.8 mph 19.6 mph N/A   Clear
8:57 AM 61.5 °F 49.1 °F 64% 30.37 in 12.0 mi SE 11.5 mph - N/A   Clear
9:56 AM 64.0 °F 49.5 °F 59% 30.37 in 12.0 mi South 12.7 mph 18.4 mph N/A   Clear
10:56 AM 66.0 °F 46.8 °F 50% 30.37 in 12.0 mi South 8.1 mph 17.3 mph N/A   Clear
11:56 AM 68.2 °F 47.5 °F 47% 30.35 in 12.0 mi SW 8.1 mph 18.4 mph N/A   Partly Cloudy
12:56 PM 68.5 °F 51.3 °F 54% 30.34 in 12.0 mi SSW 6.9 mph 18.4 mph N/A   Mostly Cloudy
1:56 PM 65.8 °F 50.0 °F 57% 30.34 in 12.0 mi SW 4.6 mph 16.1 mph N/A   Mostly Cloudy
2:16 PM 66.2 °F 55.4 °F 68% 30.32 in 12.0 mi West 16.1 mph 20.7 mph N/A   Mostly Cloudy
2:36 PM 66.2 °F 53.6 °F 64% 30.32 in 12.0 mi WSW 8.1 mph 18.4 mph N/A   Mostly Cloudy
2:56 PM 65.1 °F 53.8 °F 67% 30.32 in 12.0 mi SSW 3.5 mph - N/A   Mostly Cloudy
3:36 PM 64.4 °F 55.4 °F 73% 30.33 in 12.0 mi WSW 6.9 mph - N/A   Mostly Cloudy
3:56 PM 63.3 °F 54.9 °F 74% 30.33 in 12.0 mi West 10.4 mph - N/A   Overcast
4:56 PM 61.9 °F 50.7 °F 67% 30.35 in 12.0 mi SSW 6.9 mph - N/A   Overcast
5:06 PM 60.8 °F 50.0 °F 68% 30.35 in 12.0 mi SSE 8.1 mph - N/A   Mostly Cloudy
5:36 PM 60.8 °F 50.0 °F 68% 30.35 in 10.0 mi SSE 8.1 mph - N/A   Mostly Cloudy
5:41 PM 60.8 °F 50.0 °F 68% 30.35 in 11.0 mi SSE 8.1 mph - N/A   Mostly Cloudy
5:56 PM 59.4 °F 48.6 °F 67% 30.35 in 12.0 mi SSE 10.4 mph - N/A   Mostly Cloudy
6:01 PM 59.0 °F 50.0 °F 72% 30.36 in 12.0 mi SSE 9.2 mph - N/A   Mostly Cloudy
6:06 PM 59.0 °F 48.2 °F 67% 30.36 in 12.0 mi SE 11.5 mph - N/A   Scattered Clouds
6:46 PM 55.4 °F 50.0 °F 82% 30.37 in 12.0 mi SE 8.1 mph - N/A   Mostly Cloudy
6:51 PM 55.4 °F 50.0 °F 82% 30.37 in 12.0 mi SE 9.2 mph - N/A   Scattered Clouds
6:56 PM 55.8 °F 49.3 °F 79% 30.38 in 12.0 mi SE 8.1 mph - N/A   Scattered Clouds
7:56 PM 54.1 °F 48.0 °F 80% 30.39 in 12.0 mi SE 8.1 mph - N/A   Clear
8:56 PM 52.7 °F 44.8 °F 74% 30.40 in 12.0 mi ESE 4.6 mph - N/A   Clear
9:56 PM 52.3 °F 45.5 °F 78% 30.40 in 12.0 mi SE 8.1 mph 16.1 mph N/A   Clear
10:56 PM 51.8 °F 44.8 °F 77% 30.40 in 12.0 mi ESE 4.6 mph - N/A   Partly Cloudy
11:56 PM 50.4 °F 40.8 °F 70% 30.39 in 12.0 mi East 2.3 mph - N/A   Clear